Temp
-14 -13 -12 -12 -12 -12 -12 -12 -12 -12 -12 -12 -12 -12 -12 -11 -11 -12 -11 -11 -10 -10 -10 -10 -10 -10 -10 -10 -10 -10 -10 -9 -9 -10 -9 -9 -10 -10 -10 -10 -10 -10 -10 -10 -10
-14 -14 -13 -13 -13 -13 -13 -13 -12 -12 -12 -12 -12 -12 -12 -12 -12 -11 -11 -11 -11 -11 -10 -10 -10 -10 -10 -10 -10 -10 -9 -9 -9 -10 -9 -9 -10 -10 -10 -10 -11 -11 -11 -11 -11
-15 -15 -14 -14 -14 -14 -13 -13 -13 -12 -12 -13 -12 -12 -12 -12 -12 -12 -11 -11 -11 -11 -11 -10 -10 -10 -10 -10 -10 -10 -10 -10 -10 -10 -10 -10 -10 -10 -10 -10 -11 -11 -11 -11 -11
-15 -15 -15 -14 -14 -14 -14 -13 -13 -13 -13 -13 -13 -12 -12 -12 -12 -12 -12 -12 -11 -11 -11 -11 -10 -10 -10 -10 -10 -10 -10 -10 -10 -10 -10 -10 -10 -10 -10 -10 -11 -11 -11 -11 -11
-16 -15 -15 -15 -15 -15 -14 -14 -14 -13 -13 -13 -13 -13 -12 -12 -12 -12 -12 -12 -12 -11 -11 -11 -11 -10 -10 -10 -10 -10 -10 -10 -10 -10 -10 -10 -10 -10 -10 -10 -10 -11 -11 -11 -11
-16 -16 -16 -15 -15 -15 -14 -14 -14 -14 -14 -13 -13 -13 -13 -13 -13 -13 -12 -12 -12 -12 -12 -11 -11 -11 -10 -10 -10 -10 -10 -10 -10 -10 -10 -10 -10 -10 -10 -10 -10 -11 -11 -11 -11
-16 -16 -16 -15 -16 -15 -15 -15 -15 -14 -14 -14 -13 -13 -13 -13 -13 -13 -13 -12 -12 -12 -12 -12 -12 -11 -11 -11 -11 -10 -10 -10 -10 -10 -10 -10 -10 -10 -10 -10 -10 -11 -11 -11 -11
-17 -16 -16 -16 -16 -16 -15 -15 -15 -15 -15 -14 -14 -13 -13 -13 -13 -13 -13 -13 -13 -12 -12 -12 -12 -12 -11 -11 -11 -11 -10 -10 -10 -10 -10 -10 -11 -10 -10 -11 -10 -11 -11 -11 -11
-17 -17 -17 -16 -16 -16 -16 -15 -15 -15 -15 -14 -14 -14 -13 -13 -13 -13 -13 -13 -13 -13 -12 -12 -12 -12 -12 -11 -11 -11 -11 -11 -11 -10 -10 -10 -11 -10 -10 -11 -11 -11 -11 -11 -11
-17 -16 -17 -16 -16 -17 -17 -16 -15 -15 -15 -15 -14 -14 -13 -13 -13 -13 -13 -13 -13 -13 -12 -12 -12 -12 -12 -11 -11 -11 -11 -11 -11 -10 -10 -10 -11 -11 -11 -11 -11 -11 -11 -11 -11
-17 -17 -17 -17 -17 -17 -17 -17 -16 -15 -14 -14 -14 -14 -14 -14 -14 -13 -13 -13 -13 -13 -12 -12 -12 -11 -12 -12 -12 -11 -11 -11 -11 -11 -11 -11 -11 -11 -11 -11 -11 -11 -11 -11 -11
-17 -17 -17 -17 -17 -16 -17 -16 -16 -16 -16 -15 -15 -14 -14 -14 -14 -14 -14 -13 -13 -13 -13 -12 -12 -13 -12 -12 -12 -11 -11 -11 -11 -11 -11 -11 -11 -11 -11 -11 -11 -11 -11 -11 -11
-17 -17 -17 -17 -17 -16 -17 -17 -17 -17 -17 -16 -15 -15 -15 -15 -15 -14 -14 -14 -14 -13 -13 -12 -13 -13 -12 -12 -12 -12 -12 -12 -12 -11 -11 -11 -11 -11 -11 -11 -11 -11 -11 -11 -11
-17 -17 -17 -17 -16 -16 -17 -18 -17 -18 -18 -17 -16 -15 -15 -15 -15 -15 -14 -14 -14 -13 -13 -13 -13 -13 -13 -13 -12 -12 -12 -12 -12 -11 -11 -11 -11 -11 -11 -11 -11 -12 -11 -12 -11
-17 -17 -17 -17 -17 -16 -17 -18 -18 -19 -18 -17 -17 -16 -16 -15 -15 -15 -14 -14 -14 -14 -14 -13 -13 -13 -13 -13 -13 -13 -13 -13 -12 -12 -12 -11 -11 -10 -11 -12 -12 -12 -12 -12 -11
-17 -17 -17 -17 -17 -17 -18 -17 -17 -18 -17 -17 -16 -16 -15 -15 -15 -15 -15 -15 -14 -15 -14 -14 -14 -13 -13 -13 -13 -13 -13 -13 -13 -12 -12 -11 -12 -11 -11 -11 -11 -12 -12 -12 -12
-17 -17 -17 -17 -17 -17 -18 -18 -18 -17 -16 -16 -16 -16 -16 -16 -15 -15 -15 -15 -15 -14 -14 -13 -13 -13 -13 -13 -13 -13 -13 -13 -13 -13 -11 -12 -12 -11 -12 -11 -11 -12 -12 -12 -11
-18 -18 -17 -17 -17 -18 -18 -18 -18 -16 -16 -15 -16 -16 -16 -16 -16 -16 -16 -15 -15 -15 -14 -14 -14 -13 -13 -13 -14 -14 -14 -14 -13 -13 -13 -13 -12 -11 -12 -12 -12 -12 -12 -12 -12
-18 -18 -17 -17 -18 -18 -19 -18 -17 -17 -17 -17 -17 -17 -17 -17 -16 -16 -16 -16 -16 -15 -15 -15 -14 -14 -14 -15 -15 -15 -14 -14 -14 -13 -13 -12 -12 -12 -12 -12 -12 -12 -12 -12 -12
-18 -18 -17 -18 -17 -18 -18 -18 -18 -17 -17 -17 -17 -17 -17 -17 -17 -17 -17 -16 -16 -16 -16 -16 -16 -15 -16 -15 -15 -15 -15 -16 -15 -14 -13 -13 -12 -13 -13 -13 -13 -13 -13 -13 -13
-18 -18 -18 -18 -18 -18 -18 -18 -18 -18 -17 -17 -17 -18 -17 -17 -18 -17 -17 -17 -17 -17 -18 -18 -17 -16 -16 -15 -15 -16 -16 -16 -16 -15 -14 -13 -13 -14 -13 -13 -14 -14 -14 -15 -15
-19 -18 -19 -19 -18 -18 -18 -18 -18 -18 -18 -17 -17 -18 -18 -18 -18 -18 -17 -18 -17 -18 -18 -18 -17 -17 -17 -17 -17 -17 -16 -16 -17 -16 -16 -16 -16 -15 -14 -15 -15 -15 -15 -15 -14
-19 -19 -19 -19 -19 -18 -18 -18 -18 -18 -18 -18 -18 -17 -17 -18 -18 -17 -17 -17 -17 -17 -17 -17 -17 -17 -17 -17 -16 -16 -16 -16 -17 -17 -16 -16 -15 -15 -16 -16 -16 -16 -15 -15 -15
-20 -19 -19 -19 -19 -19 -19 -19 -19 -19 -18 -18 -18 -18 -18 -18 -18 -17 -17 -16 -17 -17 -17 -17 -17 -17 -16 -16 -17 -17 -16 -17 -17 -17 -16 -16 -17 -17 -16 -17 -17 -16 -16 -16 -16
-22 -21 -20 -19 -20 -20 -19 -19 -19 -18 -19 -18 -18 -18 -18 -18 -18 -18 -17 -17 -17 -17 -17 -17 -17 -17 -17 -16 -17 -16 -17 -17 -17 -17 -17 -16 -17 -18 -17 -17 -17 -17 -17 -16 -16
-22 -22 -22 -20 -20 -19 -20 -20 -20 -19 -19 -19 -18 -18 -18 -18 -18 -18 -18 -18 -17 -17 -17 -17 -17 -17 -17 -17 -17 -16 -17 -17 -17 -16 -16 -16 -16 -18 -17 -17 -17 -16 -16 -16 -16
-22 -21 -22 -22 -22 -22 -19 -19 -19 -20 -20 -19 -19 -18 -18 -18 -18 -18 -18 -18 -18 -18 -17 -17 -17 -17 -17 -17 -17 -17 -15 -16 -16 -16 -16 -16 -16 -17 -17 -17 -17 -17 -16 -17 -17
Height
5728 5733 5738 5744 5751 5755 5762 5769 5775 5782 5785 5790 5795 5802 5805 5808 5812 5814 5818 5822 5826 5831 5833 5839 5844 5847 5852 5854 5857 5861 5863 5864 5866 5867 5869 5870 5872 5872 5873 5875 5876 5875 5876 5877 5878
5717 5726 5730 5736 5743 5749 5755 5763 5769 5775 5781 5785 5790 5795 5800 5804 5808 5812 5816 5819 5823 5825 5831 5836 5841 5845 5849 5851 5855 5858 5860 5863 5865 5866 5867 5868 5870 5871 5872 5874 5874 5874 5875 5876 5877
5709 5716 5722 5730 5734 5742 5749 5755 5764 5770 5775 5779 5784 5789 5795 5800 5804 5808 5811 5815 5819 5823 5827 5832 5836 5842 5846 5848 5852 5855 5857 5860 5863 5864 5866 5867 5869 5869 5871 5872 5873 5873 5873 5875 5876
5700 5707 5715 5722 5730 5735 5742 5748 5756 5763 5769 5773 5778 5784 5790 5795 5801 5804 5807 5811 5816 5819 5824 5828 5833 5838 5841 5844 5848 5852 5854 5857 5859 5862 5863 5864 5867 5868 5869 5871 5871 5872 5872 5873 5874
5690 5698 5706 5713 5722 5728 5734 5742 5748 5756 5763 5768 5774 5779 5784 5790 5795 5799 5803 5807 5811 5815 5820 5825 5828 5833 5837 5841 5845 5848 5851 5854 5855 5857 5861 5861 5864 5866 5865 5868 5869 5870 5871 5872 5873
5682 5689 5697 5705 5714 5721 5727 5734 5740 5747 5756 5762 5767 5773 5779 5785 5789 5793 5798 5802 5807 5811 5816 5821 5824 5828 5833 5837 5841 5844 5847 5849 5851 5853 5856 5858 5860 5862 5861 5865 5867 5868 5868 5870 5870
5673 5680 5688 5696 5704 5712 5720 5725 5732 5739 5747 5755 5761 5768 5773 5778 5783 5789 5793 5797 5802 5806 5810 5815 5818 5823 5828 5831 5835 5839 5842 5844 5847 5849 5852 5853 5857 5857 5858 5861 5863 5864 5866 5867 5868
5664 5670 5679 5686 5693 5702 5712 5719 5724 5731 5738 5747 5754 5760 5766 5772 5777 5783 5788 5793 5797 5801 5805 5809 5813 5817 5821 5826 5829 5833 5836 5840 5842 5845 5847 5849 5852 5853 5853 5856 5858 5861 5862 5863 5864
5655 5662 5670 5677 5683 5690 5700 5709 5717 5722 5729 5738 5747 5753 5760 5767 5772 5777 5782 5787 5791 5795 5799 5803 5808 5813 5817 5820 5824 5827 5830 5834 5837 5838 5841 5844 5847 5848 5849 5850 5852 5855 5857 5859 5860
5647 5653 5660 5669 5673 5680 5687 5697 5707 5715 5721 5729 5737 5746 5756 5762 5765 5770 5775 5780 5785 5789 5794 5798 5802 5807 5811 5815 5820 5823 5825 5828 5831 5834 5835 5838 5842 5843 5843 5844 5847 5849 5852 5853 5854
5639 5646 5651 5660 5664 5671 5681 5688 5699 5708 5717 5725 5731 5738 5745 5751 5756 5762 5767 5773 5778 5783 5788 5792 5797 5803 5807 5809 5811 5814 5818 5821 5824 5827 5830 5832 5835 5836 5838 5839 5840 5843 5845 5847 5848
5631 5636 5644 5652 5657 5663 5671 5681 5691 5702 5707 5713 5718 5726 5734 5740 5748 5754 5760 5766 5771 5776 5781 5787 5792 5795 5797 5802 5806 5809 5812 5815 5816 5819 5823 5825 5828 5829 5830 5831 5835 5837 5838 5839 5840
5622 5629 5635 5643 5648 5657 5665 5673 5681 5687 5694 5702 5709 5716 5724 5731 5738 5744 5752 5757 5763 5768 5774 5779 5785 5786 5790 5795 5799 5802 5805 5807 5810 5812 5815 5818 5821 5823 5824 5825 5827 5829 5830 5831 5832
5615 5621 5627 5633 5643 5650 5658 5664 5670 5677 5680 5689 5699 5706 5713 5720 5727 5736 5741 5748 5754 5760 5764 5769 5773 5778 5782 5786 5790 5794 5798 5799 5802 5805 5807 5810 5812 5816 5817 5818 5819 5821 5821 5823 5825
5607 5612 5620 5628 5636 5644 5653 5656 5662 5662 5665 5679 5687 5697 5704 5712 5722 5727 5732 5738 5745 5750 5756 5764 5766 5772 5776 5782 5783 5787 5789 5791 5794 5796 5799 5803 5802 5809 5810 5810 5810 5812 5814 5816 5817
5600 5604 5612 5618 5628 5636 5639 5646 5651 5651 5654 5669 5678 5685 5695 5702 5709 5716 5722 5728 5734 5739 5747 5751 5757 5761 5768 5770 5772 5776 5780 5782 5785 5788 5791 5795 5795 5797 5800 5800 5802 5803 5805 5808 5809
5592 5597 5605 5612 5622 5624 5631 5635 5635 5642 5653 5661 5668 5678 5685 5693 5699 5704 5711 5718 5723 5730 5737 5742 5746 5752 5758 5761 5764 5768 5770 5772 5776 5779 5784 5784 5786 5788 5787 5790 5792 5794 5795 5797 5799
5585 5591 5597 5605 5612 5615 5619 5624 5625 5636 5645 5651 5660 5666 5673 5683 5687 5694 5702 5707 5715 5722 5728 5732 5737 5745 5750 5752 5757 5759 5762 5765 5766 5769 5773 5772 5775 5778 5775 5778 5780 5784 5786 5786 5787
5578 5584 5591 5598 5604 5609 5611 5611 5622 5628 5636 5643 5651 5657 5663 5671 5677 5682 5690 5699 5706 5714 5719 5723 5726 5732 5736 5740 5744 5747 5750 5756 5756 5758 5761 5764 5765 5766 5765 5765 5766 5770 5774 5776 5777
5570 5576 5582 5591 5596 5598 5600 5605 5616 5623 5628 5637 5644 5651 5656 5663 5668 5673 5680 5688 5694 5700 5706 5710 5714 5718 5723 5728 5731 5736 5742 5742 5743 5747 5749 5752 5754 5755 5755 5756 5756 5756 5757 5760 5763
5562 5568 5573 5579 5585 5587 5589 5598 5607 5615 5621 5628 5634 5640 5648 5653 5657 5662 5670 5677 5684 5690 5692 5696 5702 5706 5710 5714 5720 5724 5726 5730 5734 5737 5738 5742 5742 5743 5743 5744 5745 5745 5746 5748 5751
5551 5560 5563 5568 5575 5577 5582 5590 5599 5605 5612 5618 5625 5631 5636 5644 5648 5653 5658 5665 5672 5678 5680 5686 5688 5692 5697 5702 5707 5712 5716 5719 5720 5725 5728 5732 5729 5731 5730 5731 5733 5735 5736 5738 5740
5540 5547 5552 5555 5562 5569 5576 5583 5589 5595 5602 5609 5615 5620 5628 5633 5637 5643 5648 5654 5660 5666 5669 5673 5675 5678 5682 5689 5692 5695 5701 5707 5711 5715 5716 5721 5721 5719 5718 5720 5722 5726 5727 5726 5726
5526 5535 5541 5547 5553 5560 5567 5573 5580 5585 5592 5599 5605 5610 5616 5622 5627 5632 5636 5643 5648 5654 5659 5661 5665 5669 5674 5680 5685 5687 5694 5698 5702 5703 5707 5710 5711 5709 5708 5709 5711 5712 5713 5715 5715
5515 5521 5529 5538 5546 5549 5555 5563 5568 5577 5583 5589 5595 5601 5607 5613 5617 5620 5627 5633 5639 5643 5646 5649 5655 5660 5664 5667 5669 5676 5680 5684 5685 5693 5692 5700 5699 5696 5697 5697 5698 5700 5701 5703 5703
5506 5512 5519 5526 5530 5536 5543 5554 5560 5566 5573 5580 5587 5591 5596 5603 5609 5613 5615 5623 5628 5632 5635 5639 5643 5648 5652 5656 5658 5661 5667 5671 5674 5677 5680 5684 5688 5685 5686 5687 5689 5690 5690 5691 5691
5492 5499 5506 5513 5518 5522 5536 5541 5550 5555 5561 5568 5574 5580 5585 5591 5596 5602 5605 5611 5615 5620 5624 5629 5633 5636 5640 5644 5648 5651 5655 5658 5663 5666 5670 5673 5677 5676 5675 5676 5678 5681 5681 5681 5681
Wind_Speed
49 50 50 47 44 43 40 38 38 39 38 38 37 34 28 30 32 29 32 34 36 35 33 34 34 32 31 29 26 23 20 17 14 11 7 6 5 5 4 4 4 3 3 4 4
50 50 51 50 48 46 45 41 39 39 38 38 37 39 30 31 33 34 33 35 35 34 36 36 35 34 33 30 27 24 21 17 13 11 9 6 4 5 6 5 5 6 5 5 4
50 48 50 52 51 49 48 45 43 41 40 37 35 35 39 37 32 33 34 34 35 37 38 38 37 36 34 31 29 26 23 19 16 14 12 9 7 5 6 6 8 10 8 5 3
53 49 47 53 53 52 50 49 47 45 43 39 37 36 35 34 34 34 33 35 36 37 38 39 39 38 37 34 30 29 26 21 18 16 14 12 10 9 8 7 11 11 9 6 4
57 53 51 49 55 54 53 52 50 48 46 43 40 38 36 34 33 33 32 33 35 36 38 38 39 39 38 36 33 31 28 23 23 20 17 16 13 11 14 10 12 13 13 9 7
49 55 50 50 53 55 57 56 53 51 48 46 42 40 37 35 34 32 32 31 33 36 36 38 38 38 39 37 35 33 31 29 27 24 22 19 17 15 20 13 14 15 14 12 10
46 44 47 48 53 54 56 57 56 54 52 50 47 44 40 37 35 34 32 32 32 32 31 34 36 37 38 38 37 36 34 32 30 28 26 24 20 21 21 17 16 19 17 15 13
47 46 48 48 52 56 56 58 58 57 54 53 51 48 44 40 37 35 34 33 32 32 32 32 35 34 36 38 37 37 37 35 32 32 30 29 24 24 25 22 21 21 21 19 17
49 44 44 47 50 59 57 58 59 58 57 56 54 51 48 43 40 38 35 35 34 33 33 33 33 33 33 35 35 37 37 35 34 35 34 33 27 28 28 26 25 23 24 22 21
45 44 43 50 53 57 60 58 60 59 60 58 58 56 52 47 45 41 39 38 37 35 34 34 33 33 32 32 32 31 31 34 35 36 36 34 30 30 31 30 28 26 25 26 24
42 45 41 47 47 55 60 62 60 61 61 60 59 58 56 52 49 46 43 41 40 38 37 36 35 32 31 31 32 33 33 33 34 34 34 33 32 32 32 32 31 30 28 29 28
43 42 42 48 49 48 61 59 60 61 61 61 60 59 57 54 52 49 47 46 44 41 40 38 35 33 35 35 34 34 33 32 33 33 33 33 31 32 33 34 32 31 31 32 33
45 41 40 43 45 41 55 59 65 66 63 62 59 58 56 56 53 52 49 47 45 43 41 40 37 36 36 36 36 35 34 34 35 34 33 32 31 31 33 35 34 34 33 36 37
42 44 44 46 42 39 56 59 66 67 64 66 63 60 59 58 56 53 53 51 50 47 45 45 43 41 39 36 36 36 35 36 36 36 35 33 34 31 32 34 36 36 37 36 36
43 38 41 39 39 37 42 61 55 60 69 61 65 61 56 57 55 55 54 53 51 50 48 45 43 40 38 34 35 35 36 37 38 38 37 35 37 31 30 33 37 39 38 38 38
45 48 43 44 42 46 49 48 54 54 64 59 63 65 66 60 57 55 55 55 54 51 49 49 46 45 43 41 40 38 37 38 38 38 39 36 37 38 34 35 37 41 42 41 41
40 48 46 41 38 46 54 50 49 47 47 59 60 62 62 65 67 59 54 57 57 55 54 53 52 49 47 45 44 42 41 41 41 40 39 41 40 40 41 39 39 39 41 42 44
41 38 43 39 38 42 48 54 54 46 40 43 48 49 49 59 64 65 58 58 56 53 53 52 53 50 49 48 45 43 41 41 43 43 41 43 43 42 46 44 44 41 41 42 43
49 41 43 44 43 47 59 60 55 50 52 46 45 44 48 50 50 53 60 63 60 57 54 52 53 52 49 48 47 47 48 45 46 48 47 47 47 46 47 48 48 46 44 44 45
51 48 50 55 43 55 62 62 58 56 56 55 50 44 42 42 44 48 55 59 59 56 54 55 51 51 50 50 51 51 49 48 50 52 52 51 50 49 48 50 51 51 51 50 48
48 50 48 48 58 58 48 53 54 51 50 47 49 45 43 41 41 42 45 44 49 52 51 51 51 55 57 61 59 53 52 51 50 51 51 51 52 51 52 52 52 52 51 49 48
52 55 48 49 57 67 66 55 56 53 50 49 47 48 45 44 42 45 45 44 42 41 43 43 48 53 54 52 51 51 51 49 50 51 49 49 52 53 55 54 53 51 49 49 49
55 57 52 52 52 56 58 59 58 54 53 47 51 47 47 44 38 40 44 44 46 48 51 50 52 51 53 55 56 59 58 57 52 49 50 49 53 55 54 53 52 52 53 54 55
52 55 59 55 54 55 57 55 54 55 56 53 55 52 49 44 39 37 36 40 39 43 47 53 51 51 46 43 46 50 49 50 50 51 52 53 55 57 58 56 54 55 55 53 51
51 51 52 61 56 54 55 55 53 59 56 54 53 55 50 44 43 35 35 41 41 42 40 46 46 46 45 45 47 48 48 48 49 45 51 45 46 50 51 54 54 53 51 47 45
53 51 48 52 54 59 55 46 49 55 57 56 54 52 53 46 46 49 51 39 41 39 42 42 42 44 46 45 47 47 44 47 51 50 45 43 41 48 48 48 47 47 47 47 47
56 55 53 51 50 51 53 55 50 48 53 54 56 58 51 45 46 47 45 43 42 43 43 43 48 49 50 49 48 48 46 47 46 46 45 41 41 45 45 45 46 46 48 50 52
Wind_Direction
221 216 213 213 215 213 209 208 207 207 206 206 198 208 205 209 207 198 194 192 191 190 186 190 192 189 191 190 186 192 188 183 175 180 166 162 162 165 189 204 204 237 181 163 142
219 222 214 210 210 208 207 206 207 206 204 202 204 199 216 215 208 207 203 200 196 192 192 193 196 196 195 195 194 198 201 195 185 191 203 200 188 185 198 220 200 199 181 168 163
224 220 218 214 208 207 206 203 204 207 205 202 203 200 202 204 219 210 207 207 203 200 197 197 198 200 201 200 200 206 210 204 202 201 213 218 225 219 214 220 195 189 188 195 199
228 222 221 217 213 206 205 204 203 205 207 204 203 204 204 205 209 212 211 207 208 206 204 201 201 203 205 205 208 211 217 212 218 217 224 227 233 248 237 232 211 192 200 208 238
229 225 222 220 218 210 205 206 204 205 207 207 206 206 205 207 210 209 208 208 210 210 211 209 206 207 210 211 213 217 222 220 227 226 231 238 239 243 247 238 220 207 208 213 238
232 226 226 219 223 216 208 206 205 205 209 209 210 209 206 207 211 210 211 209 209 210 212 214 213 213 214 216 219 220 224 227 231 236 236 240 243 246 250 250 230 221 221 224 232
231 229 226 228 218 221 215 208 208 206 208 211 210 212 210 208 212 213 212 211 211 211 212 214 217 216 217 221 222 225 227 230 233 239 243 243 244 244 256 250 234 225 226 230 241
232 234 228 229 227 217 219 214 209 210 209 212 213 213 213 213 211 215 215 216 215 215 214 215 216 218 220 223 225 228 231 232 237 239 243 247 243 246 254 251 246 234 233 232 239
231 231 228 236 230 217 217 218 214 212 211 213 215 215 216 215 216 215 218 219 220 219 218 217 219 220 221 225 228 230 234 236 236 241 244 247 243 248 251 252 249 241 236 237 240
227 231 224 233 226 220 214 216 217 215 214 215 216 217 216 217 219 218 218 219 222 222 224 223 222 223 224 227 232 235 237 237 239 241 245 247 247 247 250 251 248 248 242 238 243
225 225 220 229 226 217 215 215 216 217 216 220 220 219 219 219 219 220 220 221 223 224 225 227 226 227 231 232 233 233 235 239 242 243 245 248 247 247 247 247 248 244 244 243 243
219 222 218 221 218 227 218 222 214 218 216 222 221 220 221 221 221 222 223 223 224 225 226 228 228 232 233 233 235 237 239 242 245 247 246 247 246 246 248 248 245 246 246 242 243
224 218 220 219 224 223 225 222 215 216 217 220 222 221 223 222 222 221 224 226 227 228 228 229 229 233 234 237 239 239 241 242 245 248 252 251 249 246 247 250 248 243 243 245 246
227 226 226 223 222 219 223 224 221 215 217 217 221 223 222 224 224 225 224 226 228 229 230 230 230 230 234 236 240 243 245 247 247 248 250 252 250 247 247 248 247 242 245 248 249
226 226 225 224 225 225 218 215 216 219 218 218 217 221 223 227 225 226 229 227 228 232 233 235 237 238 240 243 244 244 245 247 249 252 252 254 258 251 246 246 248 248 249 250 251
220 225 220 222 219 218 218 217 212 217 227 223 221 223 226 228 226 229 229 229 229 231 232 234 236 238 237 239 240 242 244 248 250 252 255 256 259 260 256 253 247 249 252 255 257
218 210 214 220 218 221 215 213 211 221 223 224 224 223 225 227 229 229 230 232 232 231 232 235 237 238 241 241 243 246 246 248 250 253 257 258 259 263 265 260 258 259 260 261 258
213 216 216 218 219 219 213 212 218 230 224 221 220 223 226 228 230 230 235 237 238 236 236 237 241 242 242 244 246 248 249 251 253 253 253 257 259 259 263 263 264 264 265 266 268
220 218 217 220 217 220 218 223 221 232 235 230 231 233 233 229 227 229 233 235 234 238 240 240 239 240 239 239 241 243 244 249 250 253 254 255 258 260 263 268 269 267 264 263 263
224 222 219 213 211 222 221 227 229 228 230 230 232 231 232 231 230 232 232 231 231 232 239 243 241 240 240 240 240 245 245 245 246 249 252 255 257 259 262 264 266 269 269 269 269
206 209 209 211 213 209 205 216 220 221 220 222 229 230 226 229 227 230 231 232 233 235 235 238 240 242 242 242 244 243 244 246 248 249 253 256 257 257 260 262 264 266 270 274 276
205 195 190 193 196 212 222 218 221 222 226 233 232 230 233 232 233 233 232 232 228 226 231 235 237 239 243 242 241 241 242 244 246 247 251 255 260 260 261 262 265 270 272 273 275
214 206 196 190 194 203 209 213 218 224 225 224 228 230 232 230 237 237 233 230 233 232 234 231 235 239 239 239 239 239 240 248 249 249 250 252 257 260 262 264 268 270 272 274 276
235 220 208 199 197 202 206 209 209 211 222 221 223 229 229 233 240 233 231 227 228 230 232 229 234 238 245 253 254 253 251 249 249 250 254 256 257 259 265 268 267 267 269 271 273
244 242 226 210 206 206 208 210 213 212 215 219 223 225 228 225 229 229 229 230 233 234 235 230 236 239 244 248 251 250 250 247 246 251 258 256 254 257 258 259 261 266 269 268 268
237 242 244 236 229 220 216 215 215 216 214 214 219 224 221 220 225 238 241 234 235 238 237 237 240 237 237 244 249 251 248 247 247 251 250 249 250 254 258 258 261 263 266 268 272
233 237 237 238 242 245 233 225 224 221 219 220 219 220 210 214 219 221 230 223 230 233 239 238 237 241 243 240 241 244 251 252 251 249 252 251 249 254 251 255 260 261 263 266 268